Location: ????????
(55.4000°N, 39.1167°E)
Time: 13:40:51
(UTC+00:00)

Cosmos 1697 Rocket - Pass Details

Date: 19 May 2025
Orbit: 830 x 844 km, 71.0° (Epoch: 19 June)

Event Time Altitude Azimuth Distance (km) Brightness Sun altitude
Rises 19:35:07 0° 321° (NW) 3,408 7.6 -11.4°
Reaches altitude 10° 19:37:56 10° 309° (NW) 2,470 6.2 -11.6°
Maximum altitude 19:42:27 25° 256° (WSW) 1,634 4.3 -11.8°
Drops below altitude 10° 19:46:58 10° 203° (SSW) 2,461 4.7 -12.1°
Enters shadow 19:47:39 - 199° (SSW) 2,672 4.9 -12.1°
